Flag for Cuba Weather past 2 weeks in Santiago de Cuba, Cuba

Now
81 °F

Scattered clouds.


Feels Like: 83 °F
Forecast: N/A
Wind: 13 mph from Southeast

Location: Santiago De Cuba - Oriente

Current Time: Dec 18, 2014 at 5:54:35 PM

Latest Report: Dec 18, 2014 at 4:50 PM


Visibility: 6 mi

Pressure: 29.98 "Hg

Humidity: 66%

Dew point: 68 °F

Location of Santiago de CubaLocation

Historic Weather in Santiago de Cuba — Graph

°F

Santiago de Cuba temperature yesterday

Maximum temperature yesterday: 88 °F (at 11:52 AM)
Minimum temperature yesterday: 72 °F (at 4:52 AM)
Average temperature yesterday: 78 °F

Past Weeks' High & Low Weather Summary

 TemperatureHumidityPressure
High90 °F (Dec 4, 12:53 PM)83% (Dec 6, 2:50 AM)30.09 "Hg (Dec 6, 2:50 AM)
Low68 °F (Dec 10, 6:51 AM)35% (Dec 6, 2:50 PM)29.89 "Hg (Dec 3, 4:51 PM)
Average77 °F66%29.98 "Hg
* Reported Dec 3 4:51 PM — Dec 18 4:50 PM, Santiago de Cuba, Weather by CustomWeather, © 2014

Note: Actual official high and low records may vary slightly from our data, if they occured in-between our weather recording intervals... More about our weather records

Advertising

Santiago de Cuba weather history for previous 24 hours

 ConditionsComfort  
Time TempWeatherWind HumidityBarometerVisibility
4:50 PM
Dec 18
81 °FScattered clouds.13 mph66%29.98 "Hg6 mi
3:51 PM82 °FScattered clouds.12 mph62%29.98 "HgN/A
2:50 PM82 °FScattered clouds.10 mph62%29.98 "HgN/A
1:50 PM82 °FScattered clouds.9 mph58%30.01 "HgN/A
12:52 PM82 °FPartly sunny.8 mph58%30.01 "HgN/A
11:52 AM88 °FScattered clouds.10 mph43%30.04 "HgN/A
10:51 AM84 °FPassing clouds.13 mph51%30.07 "HgN/A
9:51 AM82 °FPassing clouds.9 mph55%30.09 "HgN/A
8:51 AM79 °FPassing clouds.10 mph61%30.07 "HgN/A
7:51 AM75 °FPassing clouds.7 mph69%30.07 "HgN/A
6:50 AM72 °FPassing clouds.7 mph78%30.04 "Hg6 mi
5:50 AM72 °FPassing clouds.8 mph78%30.01 "Hg6 mi
4:50 AM72 °FPassing clouds.10 mph78%30.01 "Hg6 mi
3:51 AM72 °FPassing clouds.9 mph78%30.01 "Hg6 mi
2:51 AM72 °FPassing clouds.9 mph83%30.01 "Hg6 mi
1:51 AM73 °FPassing clouds.10 mph78%30.01 "Hg6 mi
12:52 AM73 °FPassing clouds.10 mph78%30.04 "Hg6 mi
11:50 PM
Dec 17
75 °FPassing clouds.9 mph74%30.04 "Hg6 mi
10:50 PM77 °FPassing clouds.10 mph69%30.07 "Hg6 mi
9:50 PM77 °FPassing clouds.12 mph65%30.07 "Hg6 mi
8:50 PM77 °FPassing clouds.9 mph65%30.07 "Hg6 mi
7:50 PM79 °FPassing clouds.9 mph58%30.04 "Hg6 mi
6:50 PM79 °FPassing clouds.9 mph61%30.04 "Hg6 mi
5:52 PM81 °FPartly cloudy.7 mph54%N/A6 mi
Weather by CustomWeather, © 2014

See weather overviewHow to use our weather pages